Weather in Chapligin

Russia / Lipetsk Oblast     53°14′25″N   39°58′01″E
temp.,
°C
wind,
m/s
gust,
m/s
humid.,
%
clouds,
%
prec.,
mm/h
press.,
hPa
HPBL,
m
1 august, sun
sun100:00+22wnw3457100 0.0 101054
03:00+19wnw3368100 0.0 101231
06:00+19nnw2272100 0.0 101243
09:00+25ssw224949 0.0 1013509
12:00+29wsw3438100 0.0 10121750
15:00+32wnw362999 0.0 10112745
18:00+30nw1237100 0.0 101024
21:00+26nw114050 0.0 101111
2 august, mon
mon200:00+22sse115039 0.0 101111
03:00+22s33505 0.0 101146
06:00+21s37565 0.0 1011130
09:00+28s584212 0.0 1011444
12:00+30ssw373927 0.0 1010768
15:00+31sw353699 0.0 1008199
18:00+30ese343786 0.0 1006109
21:00+26s344150 0.0 100649
3 august, tue
tue300:00+22wnw6117380 0.1 1008512
03:00+19sse469184 1.1 1007144
06:00+19s41089100 0.1 1007301
09:00+20sw5108683 0.2 1008530
12:00+23w577181 0.0 1009655
15:00+27w784591 0.0 10081574
18:00+24wnw6855100 0.1 10091156
21:00+19nw387393 0.1 1011185
4 august, wed
wed400:00+16nw34790 0.0 101265
03:00+15wnw37880 0.0 1013143
06:00+15wnw25820 0.0 1015175
09:00+21nw45480 0.0 1015835
12:00+25wnw553236 0.0 10152644
15:00+24wnw763684 0.0 10151543
18:00+24nw45378 0.0 10161255
21:00+20nnw224987 0.0 101634
5 august, thu
thu500:00+18nnw22571 0.0 101725
03:00+17w226792 0.0 101712
06:00+18nw2464100 0.0 1018104
09:00+21nnw1258100 0.0 1018308
12:00+25nnw0140100 0.0 10181484
15:00+27nw1330100 0.0 10172783
18:00+26wnw2333100 0.0 10171023
21:00+21e3544100 0.0 101690